星链-1789 (STARLINK-1789 )

导读 | 豆包AI

STARLINK-1789是美国太空探索技术公司 SpaceX 星链计划中的卫星,于2020年10月18日发射。星链计划旨在构建全球卫星互联网星座,该卫星加入星座后,助力为全球提供低延迟、高速率的宽带互联网服务,推动太空互联网基础设施的部署与覆盖拓展。

基本信息
目录编号:
46690
目录名称:
STARLINK-1789
国际标识:
2020-073W
轨道中心:
EARTH
卫星名称:
星链-1789
卫星全名:
星链-1789 (STARLINK-1789 )
卫星状态:
已陨落 最后检测时间 2026-02-24
发射日期:
2020-10-18 UTC
国别 :
美国 (US)
星等 :
--
轨道信息
数据来源 国际轨道数据
星历时间: 2026-02-24T23:12:42+0800
轨道信息已过期38天
半长轴: 6533.389km
偏心率: 0.0007305
轨道倾角: 53.022°
近地点辐角 285.071°
升交点赤经 228.279°
平近点角 74.953°
近地点: 150.479km
远地点: 160.025km
周期: 87.593分钟
每日圈数: 16.439743
详细信息
固有亮度:
5
最大亮度:
2.5
卫星平台:
Starlink V1.0
覆盖范围:
全球
运营商:
太空探索技术公司
运营商所在国:
美国
制造商(研发单位):
太空探索技术公司
制造商所在国:
美国
使用方式:
暂无
卫星简介
星链(Starlink)计划是由太空探索技术公司(SpaceX)提出的一个巨型低轨卫星互联网星座项目,计划在2019年至2024年间在太空搭建由约1.2万颗卫星组成的“星链”网络,其中1584颗将部署在地球上空550千米处的近地轨道,并从2020年开始工作。该卫星仍在工作。